Location: Unspecified
(41.4057°N, 2.1753°E)
Time: 02:09:36
(UTC+02:00)

ISS - Visible Passes

Search period start: 22 September 2014 00:00
Search period end: 02 October 2014 00:00
Orbit: 413 x 417 km, 51.6° (Epoch: 21 September)

Date Brightness Start Highest point End Pass type
(mag) Time Alt. Az. Time Alt. Az. Time Alt. Az.
22 Sep -0.7 06:15:45 10° NW 06:17:35 14° N 06:19:27 10° NNE visible
23 Sep -0.6 05:28:48 15° N 05:28:48 15° N 05:30:23 10° NNE visible
23 Sep -0.9 07:03:43 10° NNW 07:06:05 18° NNE 07:08:26 10° ENE visible
24 Sep -0.7 06:14:47 10° NNW 06:16:53 15° N 06:18:57 10° NE visible
25 Sep -0.5 05:27:46 14° N 05:27:46 14° N 05:29:31 10° NE visible
25 Sep -1.4 07:02:14 10° NW 07:05:09 27° NNE 07:08:04 10° E visible
26 Sep -1.0 06:13:43 12° NNW 06:15:57 21° NNE 06:18:33 10° ENE visible
27 Sep -0.7 05:26:50 17° NNE 05:26:50 17° NNE 05:28:58 10° ENE visible
27 Sep -2.6 07:00:38 10° NW 07:03:55 56° NNE 07:07:11 10° ESE visible
28 Sep -1.9 06:12:53 20° NNW 06:14:44 35° NNE 06:17:50 10° E visible
29 Sep -0.9 05:26:10 23° NE 05:26:10 23° NE 05:28:18 10° E visible
29 Sep -3.1 06:59:04 10° WNW 07:02:20 54° SW 07:05:35 10° SE visible
30 Sep -3.3 06:12:27 51° NW 06:13:11 84° NE 06:16:30 10° SE visible
01 Oct -0.7 05:25:58 20° E 05:25:58 20° E 05:27:11 10° ESE visible
01 Oct -1.7 06:58:52 15° W 07:00:24 20° SW 07:02:53 10° S visible
